Content
SEND FEEDBACK

Daily
Averages
Monthly
Summary
United States of America

MAURICEVILLE, TEXAS


Home > North America > United States > Texas
Elevation: 20 feet     Latitude: 30 14N     Longitude: 093 44W

WEATHER
 
SELECT A DAY
Number of Records: 107,493;   Date Range: 8/25/05 - 7/11/14
 
SHARE

PRINT THIS DATA

[ ← Previous Day ]
WEATHER ALMANAC - MARCH 6, 2013
[ Next Day → ]
[ °C ]   °F
Weather ElementAverageHighLow
Temperature50.1 °F66.2 °F (3:55 pm)37.4 °F (5:55 am)
Dewpoint32.9 °F42.8 °F (6:55 pm)26.6 °F (2:55 pm)
Humidity57.1 %100 % (9:55 pm)23 % (3:55 pm)
Barometer30.32 in30.42 in (8:15 am)30.26 in (3:55 pm)
Wind Speed3.5 mph11.5 mph (8:55 am)
Wind Gust17.3 mph (8:35 am)
Weather ElementAverage
Visibility10 mi
Wind DirectionSSE (167.9 °)

Weather ElementTotal
Precipitation---
Heating Degree Days13.2 (Base 65)
Growing Degree Days1.8 (Base 50)
Averaged from 70 records on March 6, 2013
WEATHER CONDITIONS BREAKOUT
WIND DIRECTION BREAKOUT
WEATHER BY HOUR - MARCH 6, 2013
[ °C ]   °F
Local TimeTemperatureDewpointHumidityBarometerVisibilityWind DirectionWind SpeedGust SpeedPrecipitationEventsConditions
12:35 AM46.4 °F32.0 °F57 %30.31 in10.0 miNNW (340°)6.9 mphClear
12:55 AM46.4 °F32.0 °F57 %30.31 in10.0 miNNW (340°)5.8 mphClear
1:15 AM46.4 °F32.0 °F57 %30.31 in10.0 miNNW (340°)5.8 mphClear
1:35 AM44.6 °F32.0 °F61 %30.32 in10.0 miNNW (340°)5.8 mphClear
1:55 AM44.6 °F32.0 °F61 %30.32 in10.0 miNNW (340°)5.8 mphClear
2:15 AM44.6 °F30.2 °F57 %30.32 in10.0 miNNW (330°)4.6 mphClear
2:35 AM42.8 °F30.2 °F61 %30.32 in10.0 miNNW (340°)5.8 mphClear
2:55 AM42.8 °F30.2 °F61 %30.32 in10.0 miNNW (340°)4.6 mphClear
3:15 AM42.8 °F30.2 °F61 %30.32 in10.0 miNNW (340°)4.6 mphClear
3:35 AM41.0 °F30.2 °F65 %30.32 in10.0 miNNW (340°)3.5 mphClear
3:55 AM41.0 °F30.2 °F65 %30.33 in10.0 miNNW (340°)4.6 mphClear
4:15 AM41.0 °F30.2 °F65 %30.34 in10.0 miNNW (340°)4.6 mphClear
4:35 AM41.0 °F30.2 °F65 %30.34 in10.0 miCalmClear
4:55 AM39.2 °F30.2 °F70 %30.35 in10.0 miCalmClear
5:15 AM39.2 °F30.2 °F70 %30.36 in10.0 miCalmClear
5:55 AM37.4 °F30.2 °F75 %30.37 in10.0 miNorth (350°)3.5 mphClear
6:15 AM37.4 °F30.2 °F75 %30.37 in10.0 miNorth (350°)3.5 mphClear
6:35 AM37.4 °F30.2 °F75 %30.38 in10.0 miNorth (350°)4.6 mphClear
6:55 AM37.4 °F30.2 °F75 %30.39 in10.0 miNorth (350°)4.6 mphClear
7:15 AM37.4 °F32.0 °F81 %30.39 in10.0 miNorth (350°)4.6 mphClear
7:35 AM41.0 °F32.0 °F70 %30.40 in10.0 miNorth (350°)5.8 mphClear
7:55 AM42.8 °F32.0 °F66 %30.41 in10.0 miNorth (360°)4.6 mphClear
8:15 AM44.6 °F32.0 °F61 %30.42 in10.0 miNorth (10°)9.2 mphClear
8:35 AM46.4 °F30.2 °F53 %30.42 in10.0 miNNE (20°)8.1 mph17.3 mphClear
8:55 AM48.2 °F30.2 °F50 %30.42 in10.0 miNorth (10°)11.5 mphClear
9:15 AM50.0 °F28.4 °F43 %30.42 in10.0 miNorth (10°)11.5 mphClear
9:35 AM50.0 °F28.4 °F43 %30.42 in10.0 miNNE (20°)9.2 mphClear
9:55 AM50.0 °F28.4 °F43 %30.42 in10.0 miNorth (360°)4.6 mph9.2 mphClear
10:15 AM51.8 °F28.4 °F41 %30.41 in10.0 miNorth (360°)3.5 mphClear
10:35 AM53.6 °F28.4 °F38 %30.40 in10.0 miCalmClear
10:55 AM55.4 °F28.4 °F36 %30.40 in10.0 miCalmClear
11:15 AM55.4 °F30.2 °F38 %30.39 in10.0 miNNW (340°)10.4 mphClear
11:35 AM57.2 °F30.2 °F36 %30.39 in10.0 miNNW (330°)4.6 mphClear
11:55 AM57.2 °F30.2 °F36 %30.38 in10.0 miNNW (340°)8.1 mphClear
12:15 PM59.0 °F30.2 °F34 %30.36 in10.0 miNW (320°)8.1 mphClear
12:35 PM59.0 °F30.2 °F34 %30.35 in10.0 miNorth (350°)4.6 mphClear
12:55 PM60.8 °F30.2 °F31 %30.34 in10.0 miWNW (300°)6.9 mphClear
1:15 PM60.8 °F30.2 °F31 %30.33 in10.0 miNNW (340°)4.6 mphClear
1:35 PM62.6 °F30.2 °F30 %30.32 in10.0 miNW (310°)5.8 mphClear
1:55 PM62.6 °F30.2 °F30 %30.31 in10.0 miCalmClear
2:15 PM62.6 °F30.2 °F30 %30.29 in10.0 miNNW (330°)6.9 mphClear
2:35 PM64.4 °F28.4 °F26 %30.28 in10.0 miWNW (300°)6.9 mphClear
2:55 PM64.4 °F26.6 °F24 %30.29 in10.0 miNorth (360°)6.9 mphClear
3:15 PM64.4 °F28.4 °F26 %30.28 in10.0 miNorth (360°)6.9 mphClear
3:35 PM64.4 °F30.2 °F28 %30.27 in10.0 miCalmClear
3:55 PM66.2 °F26.6 °F23 %30.26 in10.0 miCalmClear
4:15 PM64.4 °F26.6 °F24 %30.26 in10.0 miCalmClear
4:35 PM64.4 °F28.4 °F26 %30.26 in10.0 miCalmClear
4:55 PM64.4 °F28.4 °F26 %30.26 in10.0 miNorth (10°)3.5 mphClear
5:15 PM62.6 °F30.2 °F30 %30.26 in10.0 miCalmClear
5:35 PM62.6 °F30.2 °F30 %30.26 in10.0 miCalmClear
5:55 PM60.8 °F32.0 °F34 %30.26 in10.0 miCalmClear
6:15 PM59.0 °F32.0 °F36 %30.27 in10.0 miCalmClear
6:35 PM55.4 °F41.0 °F58 %30.27 in10.0 miCalmClear
6:55 PM53.6 °F42.8 °F67 %30.27 in10.0 miSW (230°)3.5 mphClear
7:15 PM53.6 °F42.8 °F67 %30.27 in10.0 miSSW (210°)3.5 mphClear
7:35 PM50.0 °F42.8 °F76 %30.27 in10.0 miCalmClear
7:55 PM46.4 °F42.8 °F87 %30.28 in10.0 miCalmClear
8:15 PM44.6 °F41.0 °F87 %30.28 in10.0 miCalmClear
8:35 PM44.6 °F41.0 °F87 %30.28 in10.0 miCalmClear
8:55 PM44.6 °F41.0 °F87 %30.27 in10.0 miCalmClear
9:15 PM44.6 °F41.0 °F87 %30.27 in10.0 miCalmClear
9:35 PM42.8 °F41.0 °F93 %30.28 in10.0 miCalmClear
9:55 PM41.0 °F41.0 °F100 %30.27 in10.0 miCalmClear
10:15 PM42.8 °F41.0 °F93 %30.28 in10.0 miCalmClear
10:35 PM42.8 °F41.0 °F93 %30.28 in10.0 miCalmClear
10:55 PM42.8 °F42.8 °F100 %30.27 in10.0 miCalmClear
11:15 PM44.6 °F42.8 °F93 %30.26 in10.0 miCalmClear
11:35 PM42.8 °F42.8 °F100 %30.26 in10.0 miCalmClear
11:55 PM42.8 °F42.8 °F100 %30.27 in10.0 miCalmClear
Hourly data recorded from KORG, located miles away from Mauriceville, Texas







STORIES FROM OUR PARTNERS